HUBBLE
1 20580U 90037B 08219.76471762 .00000267 00000-0 78087-5 0 1941
2 20580 028.4697 353.3330 0003866 198.8395 161.2052 15.00397323802582
PO-34
1 25520U 98064B 08219.97814887 .00000241 00000-0 21212-5 0 00602
2 25520 028.4596 198.7335 0005468 121.5689 238.5439 15.17215276540887
ISS
1 25544U 98067A 08219.81347098 .00007326 00000-0 57264-4 0 00010
2 25544 051.6417 116.2666 0010257 040.2184 004.5083 15.72844703556500
CO-58
1 28895U 05043F 08219.70941827 .00000060 00000-0 22120-4 0 00901
2 28895 098.0924 112.5096 0016723 250.6202 109.3194 14.59687433147858
NCUBE2
1 28897U 05043H 08219.25678095 .00000069 00000-0 24114-4 0 06198
2 28897 098.0892 111.9931 0016105 254.2183 105.7234 14.59859278140077
FALCON
1 30776U 07006E 08219.39452734 .00000149 00000-0 13875-4 0 03786
2 30776 035.4332 208.9899 0000886 033.1793 326.8979 15.03028728077709
MAST
1 31126U 07012K 08219.22158777 .00000189 00000-0 53357-4 0 3913
2 31126 098.0359 281.6495 0095037 176.2534 183.9399 14.53439485 69289
CAPE1
1 31130U 07012P 08219.70494360 .00000174 00000-0 51033-4 0 03836
2 31130 098.0356 281.0070 0103030 177.8882 182.2762 14.51983329069050
CUTE1-7
1 32785U 08021C 08219.17097512 .00000055 00000-0 13897-4 0 01251
2 32785 097.9888 278.9620 0014653 338.8338 021.2264 14.81380835014806
COMPASS
1 32787U 08021E 08219.30245178 -.00000003 00000-0 64726-5 0 01130
2 32787 097.9865 279.0449 0015559 339.2937 020.7645 14.81442219014824
AAUSAT2
1 32788U 08021F 08219.16004805 .00000259 00000-0 39810-4 0 01143
2 32788 097.9871 278.9189 0014675 342.9097 017.1618 14.81553184014809
DO-64
1 32789U 08021G 08219.91131365 -.00000031 00000-0 29644-5 0 01301
2 32789 097.9897 279.6876 0015105 336.7911 023.2617 14.81442365014911
SEEDS
1 32791U 08021J 08219.24438952 .00000021 00000-0 96335-5 0 01121
2 32791 097.9885 279.0014 0015869 337.5003 022.5505 14.81298323014783
CANX-2
1 32797U 08021L 08218.60726649 .00001601 00000-0 20867-3 0 00588
2 32797 097.9941 278.4755 0015646 346.4586 013.6197 14.81907328013403
RS-30
1 32953U 08025A 08219.71614026 .00000010 00000-0 00000-0 0 00772
2 32953 082.5001 092.1723 0019106 141.4712 218.7735 12.42996797009324
